Overview Statistics Trail Chart Weather Telemetry Raw packets
 

This is the latest recevied weather packets stored in our database for station/object N5JXS. If no packets are shown the sender has not sent any weather packets the latest 10 day(s).

<< 68 69 70 71 72 73 74 >>
Time Temp. Humidity Pressure Rain* Wind** Luminosity Snow
1788141192 17.22° C 59% 1026.6 hPa 0 mm - 0 W/m² -
1788140891 17.22° C 60% 1026.5 hPa 0 mm - 0 W/m² -
1788140586 17.22° C 61% 1026.3 hPa 0 mm - 0 W/m² -
1788140283 17.22° C 61% 1026.3 hPa 0 mm - 0 W/m² -
1788139982 17.22° C 61% 1026.1 hPa 0 mm - 0 W/m² -
1788139677 17.22° C 61% 1026.2 hPa 0 mm - 0 W/m² -
1788139373 17.22° C 62% 1026 hPa 0 mm - 1 W/m² -
1788139071 17.22° C 62% 1026.2 hPa 0 mm - 3 W/m² -
1788138767 17.22° C 62% 1026.2 hPa 0 mm - 7 W/m² -
1788138463 17.22° C 63% 1025.8 hPa 0 mm - 9 W/m² -
1788138157 17.22° C 63% 1026.1 hPa 0 mm - 13 W/m² -
1788137853 17.22° C 63% 1026.1 hPa 0 mm - 16 W/m² -
1788137548 17.78° C 63% 1026.2 hPa 0 mm - 18 W/m² -
1788137243 17.78° C 63% 1026.5 hPa 0 mm - 23 W/m² -
1788136940 17.78° C 64% 1026.3 hPa 0 mm - 19 W/m² -
1788136635 17.78° C 63% 1026.2 hPa 0 mm - 23 W/m² -
1788136331 17.78° C 63% 1026.7 hPa 0 mm - 26 W/m² -
1788136030 17.78° C 64% 1026.6 hPa 0 mm - 31 W/m² -
1788135724 17.78° C 66% 1026.8 hPa 0 mm - 31 W/m² -
1788135421 17.22° C 66% 1026.7 hPa 0 mm - 43 W/m² -
1788135121 17.22° C 66% 1027 hPa 0 mm - 50 W/m² -
1788134818 17.22° C 67% 1026.7 hPa 0 mm - 48 W/m² -
1788134512 17.22° C 67% 1026.6 hPa 0 mm - 45 W/m² -
1788134211 17.22° C 67% 1026.8 hPa 0 mm - 42 W/m² -
1788133906 17.22° C 66% 1026.6 hPa 0 mm - 44 W/m² -

* Rain latest hour (hover to see other rain measurements)
** Current wind speed in m/s (hover to see current wind gust speed)